User: anonymous   Login
Location: Unspecified
(0.0000°N, 0.0000°E)
Time: 15:31:17
(UTC+00:00)
Language:

NOSS 3-4 (A) - Orbit

View from above orbital plane
View from above orbital plane
View from above satellite
View from above satellite

Ground track
Ground track

The orbit data is extracted from the following two-line orbital elements,

1 31701U 07027A   17227.98607932 0.00000000  00000-0  00000-0 0    04
2 31701  63.4029 290.9409 0193000  25.3855 334.6145 13.40730408    08
Epoch (UTC): 15 August 2017 23:39:57
Eccentricity: 0.0193000
inclination: 63.4029°
perigee height: 962 km
apogee height: 1251 km
right ascension of ascending node: 290.9409°
argument of perigee: 25.3855°
revolutions per day: 13.40730408
mean anomaly at epoch: 334.6145°
orbit number at epoch: 0

The dashed part of the orbit path shows where the satellite is in the earth's shadow,  

DLR